Current weather by "City, St" or "zip code"  
 
Advertise Here

Current Conditions: New Bedford, New Bedford Regional Airport, MA

Fair


41.0 F

Last Updated on Jan 17 2021, 9:53 pm EST
Humidity: 53%
Wind Speed: SW 12.7 mph
Barometer 29.64 in
Dewpoint: 25.0 F
Visibility: 10.00 mi
Precip: --
Heat Index: NA
Wind Chill: 34 F
Current conditions at:

New Bedford, New Bedford Regional Airport, MA (KEWB)

Lat: 41.67528 Lon: 70.95694

Local Radar Image active severe weather and emergency alerts image image weather storm and storm spotter reports image weather observation monitoring service image
Local
Radar
Active
Alerts
Storm Reports Obs
Monitoring

Sign-up For Email & Text Message Weather Alert Notification Services


Advertise Here

Observation History for New Bedford, New Bedford Regional Airport, MA


Time Wind
(mph)
Vis
(mi)
Weather Precip (in) Temperature (F) Relative
Humidity
Wind
Chill
(F)
Heat
Index
(F)
Pressure
Air Dwpt altimeter
(in)
sea level
(mb)
Rmks
9:53 pm EST SW 12.7 10.00 Fair -- 41.0 25.0 53% 34 NA 29.64 1003.7
8:53 pm EST SW 13.8 G 21.9 10.00 Mostly Cloudy -- 41.0 26.1 55% 33 NA 29.63 1003.4
7:53 pm EST W 17.3 G 24.2 10.00 Overcast -- 42.0 26.1 53% 34 NA 29.62 1003.1
6:53 pm EST W 13.8 10.00 Overcast -- 42.0 26.1 53% 35 NA 29.60 1002.5
5:53 pm EST W 10.4 G 19.6 10.00 Fair -- 42.0 25.0 51% 36 NA 29.58 1001.7
4:53 pm EST W 12.7 10.00 Overcast -- 42.0 25.0 51% 35 NA 29.55 1000.6
3:53 pm EST W 18.4 G 28.8 10.00 Overcast -- 44.0 25.0 47% 36 NA 29.52 999.7
2:53 pm EST W 18.4 G 27.6 10.00 Mostly Cloudy -- 45.0 25.0 46% 37 NA 29.49 998.8
1:53 pm EST W 17.3 G 27.6 10.00 Mostly Cloudy -- 45.0 25.0 46% 38 NA 29.47 998.1
12:53 pm EST W 15.0 G 32.2 10.00 Fair -- 45.0 25.0 46% 38 NA 29.46 997.6
11:53 am EST W 20.7 G 29.9 10.00 Fair and Breezy -- 44.0 24.1 45% 36 NA 29.47 997.9
10:53 am EST W 15.0 G 27.6 10.00 Fair -- 43.0 25.0 49% 36 NA 29.47 998.0
9:53 am EST W 17.3 G 36.8 10.00 Fair -- 40.0 24.1 53% 31 NA 29.48 998.2
8:53 am EST W 15.0 G 32.2 10.00 Fair -- 39.0 25.0 57% 31 NA 29.47 997.9
7:53 am EST SW 13.8 G 26.5 10.00 Fair -- 37.0 25.0 62% 28 NA 29.45 997.4
6:53 am EST W 15.0 G 21.9 10.00 Fair -- 36.0 25.0 64% 27 NA 29.42 996.4
5:53 am EST SW 15.0 10.00 Fair -- 36.0 26.1 67% 27 NA 29.41 995.9
4:53 am EST SW 13.8 G 24.2 10.00 Fair -- 36.0 26.1 67% 27 NA 29.39 995.2
3:53 am EST W 15.0 G 23.0 10.00 Fair -- 36.0 26.1 67% 27 NA 29.38 994.9
2:53 am EST SW 12.7 10.00 Fair -- 36.0 27.0 70% 28 NA 29.36 994.4
1:53 am EST SW 9.2 G 21.9 10.00 Fair -- 36.0 28.0 73% 29 NA 29.35 993.7
12:53 am EST W 12.7 10.00 Fair -- 37.0 28.9 73% 29 NA 29.31 992.5
11:53 pm EST W 15.0 10.00 Fair -- 37.0 30.9 79% 28 NA 29.29 991.7
10:53 pm EST W 9.2 10.00 A Few Clouds -- 39.0 33.1 79% 33 NA 29.27 991.3

Regional Weather Observation


Pawtucket, North Central State Airport, RI (KSFZ)

Overcast
38.0 F

Providence, Theodore Francis Green State Airport, RI (KPVD)

Overcast
40.0 F

N. Kingston / Quonset, RI (KOQU)

Mostly Cloudy
43.0 F

Newport, Newport State Airport, RI (KUUU)

Overcast
41.0 F

New Bedford, New Bedford Regional Airport, MA (KEWB)

Fair
41.0 F

Plymouth, Plymouth Municipal Airport, MA (KPYM)

Overcast
40.0 F